• In Hungary
  • List of Countries
  • For 7 days
  • Water Temperature
  • Satellite Maps
  • Weather Map
  • News
  • Weather Widgets
  • user-avatar
    Login

    Hourly Weather Banasiowka

    Today, 24 September, Monday

    Time Temperature Precipitation Wind Pressure Humidity
    00:00 +11°C° 0.9 mm 9 mps 733 mmHg 85%
    01:00 +9°C° 0 mm 10 mps 734 mmHg 84%
    02:00 +8°C° 0.4 mm 10 mps 735 mmHg 84%
    03:00 +7°C° 0.4 mm 9 mps 737 mmHg 83%
    04:00 +6°C° 0.4 mm 9 mps 739 mmHg 82%
    05:00 +6°C° 0.1 mm 9 mps 740 mmHg 82%
    06:00 +7°C° 0.1 mm 9 mps 741 mmHg 81%
    07:00 +7°C° 0 mm 8 mps 742 mmHg 80%
    08:00 +7°C° 0.1 mm 8 mps 743 mmHg 78%
    09:00 +7°C° 0.1 mm 9 mps 743 mmHg 75%
    10:00 +7°C° 0.1 mm 9 mps 744 mmHg 73%
    11:00 +7°C° 0.1 mm 9 mps 745 mmHg 69%
    12:00 +8°C° 0.1 mm 9 mps 745 mmHg 65%
    13:00 +10°C° 0.1 mm 9 mps 746 mmHg 62%
    14:00 +10°C° 0.2 mm 9 mps 746 mmHg 61%
    15:00 +10°C° 0.2 mm 9 mps 746 mmHg 60%
    16:00 +10°C° 0.2 mm 9 mps 746 mmHg 59%
    17:00 +9°C° 0.1 mm 8 mps 746 mmHg 62%
    18:00 +8°C° 0.1 mm 7 mps 747 mmHg 65%
    19:00 +7°C° 0.1 mm 6 mps 747 mmHg 69%
    20:00 +7°C° 0 mm 5 mps 748 mmHg 69%
    21:00 +7°C° 0 mm 5 mps 748 mmHg 70%
    22:00 +6°C° 0 mm 5 mps 749 mmHg 71%
    23:00 +6°C° 0 mm 5 mps 749 mmHg 72%

    Tomorrow, 25 September, Tuesday

    Time Temperature Precipitation Wind Pressure Humidity
    00:00 +5°C° 0 mm 6 mps 750 mmHg 73%
    01:00 +4°C° 0 mm 6 mps 750 mmHg 74%
    02:00 +4°C° 0 mm 6 mps 751 mmHg 75%
    03:00 +4°C° 0 mm 6 mps 751 mmHg 76%
    04:00 +3°C° 0 mm 5 mps 751 mmHg 78%
    05:00 +4°C° 0 mm 6 mps 752 mmHg 77%
    06:00 +4°C° 0 mm 6 mps 753 mmHg 77%
    07:00 +4°C° 0 mm 6 mps 753 mmHg 77%
    08:00 +5°C° 0 mm 6 mps 754 mmHg 71%
    09:00 +8°C° 0 mm 6 mps 754 mmHg 65%
    10:00 +9°C° 0 mm 6 mps 755 mmHg 60%
    11:00 +10°C° 0.1 mm 6 mps 755 mmHg 55%
    12:00 +11°C° 0.1 mm 6 mps 755 mmHg 50%
    13:00 +11°C° 0.1 mm 6 mps 756 mmHg 45%
    14:00 +11°C° 0 mm 6 mps 756 mmHg 45%
    15:00 +11°C° 0 mm 6 mps 756 mmHg 46%
    16:00 +11°C° 0 mm 6 mps 756 mmHg 46%
    17:00 +10°C° 0 mm 5 mps 756 mmHg 49%
    18:00 +10°C° 0 mm 4 mps 757 mmHg 52%
    19:00 +9°C° 0 mm 3 mps 757 mmHg 56%
    20:00 +8°C° 0 mm 2 mps 758 mmHg 57%
    21:00 +7°C° 0 mm 2 mps 758 mmHg 59%
    22:00 +7°C° 0 mm 2 mps 758 mmHg 61%
    23:00 +6°C° 0 mm 2 mps 758 mmHg 62%

    Day after tomorrow, 26 September, Wednesday

    Time Temperature Precipitation Wind Pressure Humidity
    00:00 +6°C° 0 mm 2 mps 759 mmHg 63%
    01:00 +6°C° 0 mm 2 mps 759 mmHg 64%
    02:00 +5°C° 0 mm 2 mps 758 mmHg 66%
    03:00 +5°C° 0 mm 2 mps 758 mmHg 67%
    04:00 +5°C° 0 mm 2 mps 758 mmHg 68%
    05:00 +5°C° 0 mm 2 mps 758 mmHg 68%
    06:00 +6°C° 0 mm 2 mps 758 mmHg 67%
    07:00 +6°C° 0 mm 2 mps 758 mmHg 67%
    08:00 +8°C° 0 mm 3 mps 758 mmHg 60%
    09:00 +10°C° 0 mm 4 mps 758 mmHg 53%
    10:00 +12°C° 0 mm 4 mps 758 mmHg 46%
    11:00 +13°C° 0 mm 4 mps 757 mmHg 44%
    12:00 +13°C° 0 mm 5 mps 757 mmHg 43%
    13:00 +14°C° 0 mm 5 mps 756 mmHg 41%
    14:00 +14°C° 0 mm 4 mps 755 mmHg 43%
    15:00 +14°C° 0 mm 4 mps 755 mmHg 46%
    16:00 +14°C° 0 mm 3 mps 754 mmHg 48%
    17:00 +13°C° 0 mm 3 mps 754 mmHg 50%
    18:00 +12°C° 0 mm 3 mps 754 mmHg 52%
    19:00 +12°C° 0 mm 3 mps 754 mmHg 55%
    20:00 +11°C° 0 mm 3 mps 754 mmHg 55%
    21:00 +11°C° 0 mm 4 mps 754 mmHg 56%
    22:00 +10°C° 0 mm 4 mps 754 mmHg 56%
    23:00 +10°C° 0 mm 4 mps 753 mmHg 56%

    27 September, Thursday

    Time Temperature Precipitation Wind Pressure Humidity
    00:00 +10°C° 0 mm 4 mps 753 mmHg 56%
    01:00 +10°C° 0 mm 4 mps 753 mmHg 55%
    02:00 +10°C° 0 mm 4 mps 753 mmHg 55%
    03:00 +10°C° 0 mm 4 mps 752 mmHg 55%
    04:00 +8°C° 0 mm 4 mps 752 mmHg 55%
    05:00 +9°C° 0 mm 5 mps 752 mmHg 54%
    06:00 +9°C° 0 mm 5 mps 752 mmHg 54%
    07:00 +10°C° 0 mm 5 mps 752 mmHg 53%
    08:00 +12°C° 0 mm 5 mps 752 mmHg 52%
    09:00 +14°C° 0 mm 5 mps 752 mmHg 51%
    10:00 +16°C° 0 mm 5 mps 752 mmHg 50%
    11:00 +17°C° 0 mm 5 mps 752 mmHg 50%
    12:00 +19°C° 0 mm 5 mps 751 mmHg 51%
    13:00 +20°C° 0 mm 5 mps 751 mmHg 51%
    14:00 +20°C° 0 mm 5 mps 751 mmHg 54%
    15:00 +21°C° 0 mm 5 mps 751 mmHg 56%
    16:00 +21°C° 0 mm 4 mps 750 mmHg 58%
    17:00 +19°C° 0 mm 4 mps 750 mmHg 63%
    18:00 +18°C° 0 mm 3 mps 750 mmHg 68%
    19:00 +16°C° 0 mm 2 mps 750 mmHg 74%
    20:00 +16°C° 0 mm 2 mps 750 mmHg 74%
    21:00 +15°C° 0 mm 2 mps 750 mmHg 75%
    22:00 +15°C° 0 mm 2 mps 749 mmHg 76%
    23:00 +14°C° 0 mm 2 mps 749 mmHg 75%

    28 September, Friday

    Time Temperature Precipitation Wind Pressure Humidity
    00:00 +14°C° 0 mm 2 mps 749 mmHg 73%
    01:00 +14°C° 0 mm 2 mps 748 mmHg 72%
    02:00 +14°C° 0 mm 2 mps 748 mmHg 71%
    03:00 +13°C° 0 mm 2 mps 747 mmHg 71%
    04:00 +13°C° 0 mm 2 mps 747 mmHg 70%
    05:00 +12°C° 0 mm 3 mps 747 mmHg 69%
    06:00 +12°C° 0 mm 3 mps 747 mmHg 68%
    07:00 +12°C° 0 mm 3 mps 747 mmHg 67%
    08:00 +14°C° 0 mm 3 mps 747 mmHg 61%
    09:00 +17°C° 0 mm 3 mps 746 mmHg 55%
    10:00 +19°C° 0 mm 4 mps 746 mmHg 49%
    11:00 +20°C° 0 mm 4 mps 746 mmHg 48%
    12:00 +20°C° 0 mm 4 mps 746 mmHg 47%
    13:00 +21°C° 0 mm 4 mps 746 mmHg 45%
    14:00 +21°C° 0 mm 4 mps 745 mmHg 48%
    15:00 +20°C° 0 mm 4 mps 745 mmHg 51%
    16:00 +20°C° 0 mm 3 mps 745 mmHg 53%
    17:00 +18°C° 0 mm 3 mps 745 mmHg 59%
    18:00 +17°C° 0 mm 3 mps 745 mmHg 66%
    19:00 +15°C° 0 mm 2 mps 745 mmHg 72%
    20:00 +15°C° 0 mm 2 mps 746 mmHg 73%
    21:00 +14°C° 0 mm 2 mps 746 mmHg 74%
    22:00 +14°C° 0 mm 2 mps 746 mmHg 75%
    23:00 +14°C° 0.4 mm 2 mps 746 mmHg 77%

    29 September, Saturday

    Time Temperature Precipitation Wind Pressure Humidity
    00:00 +12°C° 0.4 mm 3 mps 746 mmHg 79%
    01:00 +12°C° 0.4 mm 3 mps 746 mmHg 81%
    02:00 +11°C° 0.7 mm 3 mps 747 mmHg 83%
    03:00 +12°C° 0.7 mm 2 mps 747 mmHg 86%
    04:00 +10°C° 0.7 mm 2 mps 747 mmHg 89%
    05:00 +10°C° 0.1 mm 2 mps 747 mmHg 88%
    06:00 +10°C° 0.1 mm 3 mps 748 mmHg 88%
    07:00 +9°C° 0.1 mm 3 mps 748 mmHg 88%
    08:00 +10°C° 0 mm 3 mps 749 mmHg 81%
    09:00 +11°C° 0 mm 3 mps 749 mmHg 73%
    10:00 +12°C° 0 mm 4 mps 750 mmHg 66%
    11:00 +13°C° 0 mm 4 mps 750 mmHg 60%
    12:00 +13°C° 0 mm 3 mps 750 mmHg 55%
    13:00 +14°C° 0 mm 3 mps 750 mmHg 49%
    14:00 +13°C° 0 mm 3 mps 750 mmHg 49%
    15:00 +13°C° 0 mm 3 mps 750 mmHg 49%
    16:00 +13°C° 0 mm 3 mps 750 mmHg 48%
    17:00 +12°C° 0 mm 3 mps 750 mmHg 51%
    18:00 +11°C° 0 mm 3 mps 751 mmHg 54%
    19:00 +9°C° 0 mm 2 mps 751 mmHg 57%
    20:00 +9°C° 0 mm 2 mps 751 mmHg 57%
    21:00 +8°C° 0 mm 2 mps 751 mmHg 58%
    22:00 +8°C° 0 mm 2 mps 751 mmHg 58%
    23:00 +7°C° 0 mm 2 mps 751 mmHg 58%
    Show more